STARLINK-32684 (62194 NORAD) Tracking and Keplerian Element Data

This shows tracking and keplerian element data for the satellite.

Feedback or suggestion? Click here.




ElementValue
Catalog62194
NameSTARLINK-32684
Epoch Orbit1074
Epoch Day34.94404245
Epoch Year2025
RAAN3.8964
Inclination43.003
Eccentricity6.62E-05
Argument of Perigee226.4227
Mean Anonmoly133.6571
Mean Motion15.32093671
Decay Rate2.186E-05
L11 62194U 24229C 25034.94404245 .00002186 00000+0 77765-4 0 9999
L22 62194 43.0030 3.8964 0000662 226.4227 133.6571 15.32093671 10748



Live tracking and technical data element details for STARLINK-32684 (NORAD 62194). STARLINK-32684 can be tracked NOW for your location showing map with azimuth and elevation plus other details from your city location.







IsCatalogInMostPopularTable: catalog: 62194, numindb: 13
Update: records affected: 1



GetName: 62194 STARLINK-32684

Hit Count: updated at: Sat, 24 May 2025 17:15:58 GMT